Powrót do katalogu

STARLINK-38150

AktywnyŁącznośćSSO
NORAD 100167·PAYLOAD·🇺🇸 United States

Wystrzelony Jul 25, 2026 z Vandenberg Space Force Base

Loading…

Następne Przeloty (najbliższe 24 godziny)

TLE

ŚwieżeSource: Space-Track

Epoka: Sep 14, 2026, 22:56 UTC

1 A0167U 26171V   26257.95604812  .00009173  00000-0  28610-3 0  9998
2 A0167  97.2842 290.5877 0001309  83.2328 276.9064 15.33447238  8052

Śledź STARLINK-38150 w czasie rzeczywistym z AllMySat

Download on the App Store